When you browse on this site, cookies collect data to enhance your experience and personalize the content and advertising you see.
Visit our Privacy Policy to learn more. By continuing to use the site, you agree to this use of cookies and data.

Hourly Weather Bolshaya Volga

Today, 9 August, Sunday

Time Temperature Precipitation Wind Pressure Humidity
00:00 +16°C° 0 mm 1 mps 752 mmHg 93%
01:00 +16°C° 0 mm 2 mps 752 mmHg 93%
02:00 +16°C° 0 mm 2 mps 752 mmHg 92%
03:00 +16°C° 0 mm 2 mps 752 mmHg 93%
04:00 +16°C° 0 mm 2 mps 751 mmHg 94%
05:00 +15°C° 0 mm 2 mps 751 mmHg 96%
06:00 +17°C° 0 mm 2 mps 751 mmHg 88%
07:00 +19°C° 0 mm 2 mps 751 mmHg 81%
08:00 +20°C° 0 mm 2 mps 751 mmHg 73%
09:00 +21°C° 0 mm 3 mps 751 mmHg 68%
10:00 +22°C° 0 mm 3 mps 751 mmHg 62%
11:00 +24°C° 0 mm 3 mps 751 mmHg 56%
12:00 +25°C° 0 mm 3 mps 751 mmHg 54%
13:00 +25°C° 0 mm 3 mps 751 mmHg 52%
14:00 +26°C° 0 mm 3 mps 751 mmHg 51%
15:00 +25°C° 0 mm 3 mps 750 mmHg 54%
16:00 +24°C° 0 mm 2 mps 750 mmHg 58%
17:00 +24°C° 0 mm 2 mps 750 mmHg 61%
18:00 +21°C° 0 mm 2 mps 750 mmHg 68%
19:00 +20°C° 0 mm 1 mps 750 mmHg 76%
20:00 +18°C° 0 mm 1 mps 750 mmHg 83%
21:00 +16°C° 0 mm 1 mps 750 mmHg 84%
22:00 +15°C° 0 mm 0 mps 750 mmHg 85%
23:00 +14°C° 0 mm 0 mps 750 mmHg 86%

Tomorrow, 10 August, Monday

Time Temperature Precipitation Wind Pressure Humidity
00:00 +13°C° 0 mm 0 mps 750 mmHg 86%
01:00 +13°C° 0 mm 0 mps 750 mmHg 87%
02:00 +13°C° 0 mm 0 mps 750 mmHg 88%
03:00 +13°C° 0 mm 0 mps 750 mmHg 87%
04:00 +13°C° 0 mm 0 mps 750 mmHg 87%
05:00 +13°C° 0 mm 0 mps 750 mmHg 86%
06:00 +16°C° 0 mm 0 mps 750 mmHg 79%
07:00 +18°C° 0 mm 0 mps 750 mmHg 72%
08:00 +20°C° 0 mm 0 mps 750 mmHg 65%
09:00 +24°C° 0 mm 1 mps 750 mmHg 59%
10:00 +25°C° 0 mm 1 mps 750 mmHg 54%
11:00 +27°C° 0 mm 1 mps 750 mmHg 48%
12:00 +27°C° 0 mm 1 mps 749 mmHg 47%
13:00 +27°C° 0 mm 1 mps 749 mmHg 47%
14:00 +27°C° 0 mm 2 mps 749 mmHg 46%
15:00 +26°C° 0.3 mm 2 mps 748 mmHg 54%
16:00 +26°C° 0.3 mm 2 mps 748 mmHg 63%
17:00 +25°C° 0.3 mm 2 mps 748 mmHg 71%
18:00 +23°C° 0.5 mm 2 mps 748 mmHg 78%
19:00 +21°C° 0.5 mm 1 mps 748 mmHg 84%
20:00 +20°C° 0.5 mm 1 mps 748 mmHg 90%
21:00 +18°C° 0.2 mm 2 mps 748 mmHg 91%
22:00 +18°C° 0.2 mm 2 mps 748 mmHg 92%
23:00 +17°C° 0.2 mm 3 mps 748 mmHg 93%

Day after tomorrow, 11 August, Tuesday

Time Temperature Precipitation Wind Pressure Humidity
00:00 +16°C° 0.1 mm 2 mps 748 mmHg 94%
01:00 +14°C° 0.1 mm 2 mps 748 mmHg 95%
02:00 +13°C° 0.1 mm 2 mps 748 mmHg 96%
03:00 +13°C° 0 mm 2 mps 748 mmHg 97%
04:00 +11°C° 0 mm 3 mps 748 mmHg 97%
05:00 +11°C° 0 mm 3 mps 748 mmHg 97%
06:00 +12°C° 0 mm 3 mps 748 mmHg 93%
07:00 +13°C° 0 mm 3 mps 748 mmHg 89%
08:00 +14°C° 0 mm 3 mps 748 mmHg 85%
09:00 +15°C° 0 mm 4 mps 748 mmHg 81%
10:00 +15°C° 0 mm 4 mps 749 mmHg 76%
11:00 +17°C° 0 mm 4 mps 749 mmHg 72%
12:00 +17°C° 0 mm 4 mps 749 mmHg 71%
13:00 +17°C° 0 mm 4 mps 749 mmHg 70%
14:00 +17°C° 0 mm 4 mps 749 mmHg 69%
15:00 +17°C° 0 mm 4 mps 749 mmHg 70%
16:00 +16°C° 0 mm 3 mps 749 mmHg 71%
17:00 +16°C° 0 mm 3 mps 749 mmHg 73%
18:00 +14°C° 0 mm 3 mps 749 mmHg 77%
19:00 +14°C° 0 mm 3 mps 749 mmHg 81%
20:00 +13°C° 0 mm 3 mps 749 mmHg 86%
21:00 +13°C° 0 mm 3 mps 749 mmHg 86%
22:00 +13°C° 0 mm 4 mps 749 mmHg 86%
23:00 +13°C° 0 mm 4 mps 749 mmHg 86%

12 August, Wednesday

Time Temperature Precipitation Wind Pressure Humidity
00:00 +12°C° 0.1 mm 4 mps 749 mmHg 87%
01:00 +12°C° 0.1 mm 4 mps 749 mmHg 88%
02:00 +12°C° 0.1 mm 4 mps 749 mmHg 89%
03:00 +12°C° 0 mm 4 mps 749 mmHg 89%
04:00 +12°C° 0 mm 4 mps 750 mmHg 89%
05:00 +12°C° 0 mm 4 mps 750 mmHg 89%
06:00 +13°C° 0 mm 4 mps 750 mmHg 84%
07:00 +14°C° 0 mm 4 mps 750 mmHg 78%
08:00 +14°C° 0 mm 4 mps 750 mmHg 72%
09:00 +15°C° 0 mm 4 mps 751 mmHg 67%
10:00 +17°C° 0 mm 4 mps 751 mmHg 62%
11:00 +18°C° 0 mm 4 mps 751 mmHg 56%
12:00 +18°C° 0.1 mm 4 mps 751 mmHg 56%
13:00 +18°C° 0.1 mm 4 mps 751 mmHg 56%
14:00 +18°C° 0.1 mm 4 mps 751 mmHg 55%
15:00 +17°C° 0 mm 4 mps 751 mmHg 57%
16:00 +17°C° 0 mm 3 mps 751 mmHg 58%
17:00 +16°C° 0 mm 3 mps 751 mmHg 60%
18:00 +14°C° 0 mm 3 mps 751 mmHg 64%
19:00 +14°C° 0 mm 2 mps 751 mmHg 69%
20:00 +13°C° 0 mm 2 mps 751 mmHg 73%
21:00 +12°C° 0 mm 2 mps 751 mmHg 76%
22:00 +12°C° 0 mm 1 mps 751 mmHg 79%
23:00 +11°C° 0 mm 1 mps 751 mmHg 82%

13 August, Thursday

Time Temperature Precipitation Wind Pressure Humidity
00:00 +10°C° 0 mm 1 mps 751 mmHg 82%
01:00 +10°C° 0 mm 1 mps 750 mmHg 83%
02:00 +9°C° 0 mm 1 mps 750 mmHg 84%
03:00 +10°C° 0 mm 1 mps 750 mmHg 84%
04:00 +10°C° 0 mm 1 mps 750 mmHg 84%
05:00 +10°C° 0 mm 1 mps 750 mmHg 83%
06:00 +11°C° 0 mm 1 mps 750 mmHg 79%
07:00 +13°C° 0 mm 1 mps 750 mmHg 75%
08:00 +14°C° 0 mm 1 mps 749 mmHg 71%
09:00 +15°C° 0 mm 2 mps 749 mmHg 69%
10:00 +16°C° 0 mm 2 mps 749 mmHg 66%
11:00 +16°C° 0 mm 2 mps 749 mmHg 64%
12:00 +16°C° 0.2 mm 2 mps 749 mmHg 68%
13:00 +16°C° 0.2 mm 3 mps 748 mmHg 73%
14:00 +16°C° 0.2 mm 3 mps 748 mmHg 77%
15:00 +14°C° 0.1 mm 3 mps 748 mmHg 81%
16:00 +13°C° 0.1 mm 3 mps 747 mmHg 84%
17:00 +13°C° 0.1 mm 2 mps 747 mmHg 88%
18:00 +13°C° 0.2 mm 2 mps 747 mmHg 90%
19:00 +12°C° 0.2 mm 2 mps 746 mmHg 93%
20:00 +12°C° 0.2 mm 2 mps 746 mmHg 95%
21:00 +12°C° 0.3 mm 2 mps 745 mmHg 95%
22:00 +11°C° 0.3 mm 3 mps 745 mmHg 95%
23:00 +11°C° 0.3 mm 3 mps 745 mmHg 95%

14 August, Friday

Time Temperature Precipitation Wind Pressure Humidity
00:00 +11°C° 0.6 mm 3 mps 744 mmHg 96%
01:00 +12°C° 0.6 mm 2 mps 744 mmHg 96%
02:00 +12°C° 0.6 mm 2 mps 744 mmHg 97%
03:00 +12°C° 0 mm 2 mps 744 mmHg 97%
04:00 +13°C° 0 mm 2 mps 744 mmHg 97%
05:00 +13°C° 0 mm 2 mps 744 mmHg 97%
06:00 +12°C° 0.1 mm 3 mps 744 mmHg 96%
07:00 +12°C° 0.1 mm 3 mps 744 mmHg 95%
08:00 +12°C° 0.1 mm 3 mps 744 mmHg 93%
09:00 +13°C° 0.1 mm 3 mps 744 mmHg 89%
10:00 +14°C° 0.1 mm 4 mps 744 mmHg 84%
11:00 +15°C° 0.1 mm 4 mps 745 mmHg 80%
12:00 +15°C° 0.2 mm 4 mps 745 mmHg 76%
13:00 +15°C° 0.2 mm 4 mps 745 mmHg 72%
14:00 +17°C° 0.2 mm 4 mps 745 mmHg 69%
15:00 +17°C° 0.1 mm 4 mps 745 mmHg 69%
16:00 +16°C° 0.1 mm 3 mps 745 mmHg 70%
17:00 +16°C° 0.1 mm 3 mps 745 mmHg 70%
18:00 +13°C° 0.1 mm 3 mps 746 mmHg 77%
19:00 +12°C° 0.1 mm 3 mps 746 mmHg 83%
20:00 +10°C° 0.1 mm 3 mps 746 mmHg 89%
21:00 +10°C° 0 mm 3 mps 746 mmHg 90%
22:00 +9°C° 0 mm 3 mps 746 mmHg 91%
23:00 +8°C° 0 mm 3 mps 746 mmHg 92%
Show more